Regional Weather Roundup
Issued by NWS

Home | Current Version | Previous Version | Graphics & Text | Print | Product List | Glossary On
Versions: 1 2 3 4 5 6 7 8 9 10 11 12 13 14 15 16 17 18 19 20 21 22 23 24 25 26 27 28 29 30 31 32 33 34 35 36 37 38 39 40 41 42 43 44 45 46 47 48 49 50
000
ASUS43 KDMX 240107
RWRIA

WEATHER ROUNDUP FOR IOWA
NATIONAL WEATHER SERVICE DES MOINES IA
800 PM CDT SAT MAY 23 2015

NOTE: "FAIR" INDICATES FEW OR NO CLOUDS BELOW 12,000 FEET WITH NO
SIGNIFICANT WEATHER AND/OR OBSTRUCTIONS TO VISIBILITY.

* - THESE STATIONS ARE NOT NWS STATIONS...THUS NOT UNDER NWS
QUALITY CONTROL.  THEY ALSO DO NOT REPORT WEATHER SUCH
AS PRECIPITATION OR FOG.

IAZ001>003-012>014-020>022-031>034-043>046-240200-
   NORTHWEST IOWA

CITY           SKY/WX    TMP DP  RH WIND       PRES   REMARKS
CARROLL *      CLOUDY    66  57  72 SE8       30.08F
CHEROKEE *     CLOUDY    64  55  72 SE8       30.08S
DENISON *      CLOUDY    64  59  82 SE5       30.05F
LE MARS *      MOCLDY    63  55  77 S7        30.08S
ORANGE CITY *  CLOUDY    63  54  72 S8        30.08R
SHELDON *      MOCLDY    64  54  68 S8        30.07R
SIOUX CITY     CLOUDY    64  54  69 SE8       30.06F
SPENCER        CLOUDY    66  52  60 SE10      30.09S
STORM LAKE *   CLOUDY    64  55  72 SE10      30.09S
$$

IAZ055>058-069>071-079>083-090>094-240200-
   SOUTHWEST IOWA

CITY           SKY/WX    TMP DP  RH WIND       PRES   REMARKS
ATLANTIC *     CLOUDY    66  59  77 CALM      30.07F
AUDUBON *      CLOUDY    64  57  77 SE3       30.09S
CLARINDA *     LGT RAIN  64  61  88 SE6       30.09S
COUNCIL BLFS * LGT RAIN  63  63 100 SE10      30.05F
CRESTON *      CLOUDY    66  57  72 SE14      30.10R
HARLAN  *      CLOUDY    64  63  94 SE5       30.10F
LAMONI         CLOUDY    68  56  65 SE6       30.10R
RED OAK *      CLOUDY    64  61  88 E7        30.06F
SHENANDOAH *   LGT RAIN  64  61  88 CALM      30.07R
$$

IAZ047>049-059>061-072>074-084-240200-
   CENTRAL IOWA

CITY           SKY/WX    TMP DP  RH WIND       PRES   REMARKS
AMES           CLOUDY    68  53  58 S6        30.09F
ANKENY *       CLOUDY    70  55  60 SE7       30.10R
CHARITON *     CLOUDY    70  55  60 SE6       30.10S
DES MOINES     CLOUDY    71  53  52 SE7       30.10S
GRINNELL*      CLOUDY    70  50  49 SE8       30.12S
KNOXVILLE *    CLOUDY    70  52  52 SE7       30.09F
MARSHALLTOWN   CLOUDY    71  48  43 S12       30.11S
PELLA *        CLOUDY    68  55  64 SE5       30.12S
PERRY *        CLOUDY    68  55  64 SE6       30.09S
$$

IAZ004>006-015-016-023>025-035-036-240200-
   NORTH CENTRAL IOWA

CITY           SKY/WX    TMP DP  RH WIND       PRES   REMARKS
ALGONA *       CLOUDY    64  57  77 SE7G14    30.11S
CLARION *      CLOUDY    68  55  64 CALM      30.11F
ESTHERVILLE    CLOUDY    65  50  58 S14       30.09F
FORT DODGE *   CLOUDY    66  52  59 CALM      30.11S
MASON CITY     CLOUDY    71  46  40 SE14      30.12F
FOREST CITY *  CLOUDY    59  55  88 CALM      30.11F
IOWA FALLS *   CLOUDY    72  50  46 S10       30.12S
$$

IAZ007>011-017>019-026>030-037>042-050>054-066-240200-
   NORTHEAST IOWA

CITY           SKY/WX    TMP DP  RH WIND       PRES   REMARKS
CEDAR RAPIDS   MOCLDY    71  46  40 S8        30.12S
CHARLES CITY * CLOUDY    72  45  37 SE8       30.13S
CLINTON *      PTCLDY    73  48  40 S6        30.17F
DECORAH *      CLEAR     72  46  40 VRB6      30.14S
DUBUQUE        MOCLDY    69  52  54 SE5       30.16S
MONTICELLO *   PTCLDY    72  50  46 S5        30.14S
OELWEIN *      CLEAR     72  50  46 SE7       30.14S
WATERLOO       CLOUDY    72  46  39 SE7       30.11F
$$

IAZ064-065-067-068-078-240200-
   EAST CENTRAL IOWA

CITY           SKY/WX    TMP DP  RH WIND       PRES   REMARKS
DAVENPORT      PTCLDY    75  43  31 S13       30.15S
IOWA CITY      PTCLDY    71  48  43 S7        30.14F
MT. PLEASANT * CLOUDY    70  50  49 SE6       30.13F
MUSCATINE *    CLEAR     73  48  40 S6        30.13F
QUAD CITIES    MOCLDY    74  47  38 S7        30.14S
$$

IAZ062-063-075>077-085>089-095>099-240200-
   SOUTHEAST IOWA

CITY           SKY/WX    TMP DP  RH WIND       PRES   REMARKS
BURLINGTON     CLOUDY    72  49  44 SE8       30.13F
FAIRFIELD *    CLEAR     68  52  56 SE6       30.13S
FORT MADISON * CLEAR     72  50  46 SE6       30.14S
KEOKUK *       CLEAR     70  52  52 SE6       30.13S
OSKALOOSA *      N/A     72  50  46 SE9       30.12S
CENTERVILLE *  CLEAR     66  66 100 SE7       30.13R
OTTUMWA        CLOUDY    67  53  61 SE7       30.11F
WASHINGTON *   CLEAR     72  48  43 S7        30.14F
$$

ABBREVIATIONS USED IN REMARKS
   TC - TEMPERATURES IN CELSIUS
  WCI - WIND CHILL INDEX
   HX - HEAT INDEX
  VSB - VISIBILITY
$$




USA.gov is the U.S. government's official web portal to all federal, state and local government web resources and services.